TimeEST,TemperatureF,Dew PointF,Humidity,Sea Level PressureIn,VisibilityMPH,Wind Direction,Wind SpeedMPH,Gust SpeedMPH,PrecipitationIn,Events,Conditions,WindDirDegrees,DateUTC
12:41 AM,68.0,64.4,88,30.00,10.0,SE,3.5,-,N/A,,Mostly Cloudy,140,2012-01-27 05:41:00
12:53 AM,68.0,64.9,90,30.00,10.0,SE,3.5,-,N/A,,Mostly Cloudy,140,2012-01-27 05:53:00
1:51 AM,68.0,66.2,94,29.99,10.0,SE,5.8,-,N/A,,Scattered Clouds,140,2012-01-27 06:51:00
1:53 AM,68.0,66.0,93,29.98,10.0,SE,5.8,-,N/A,,Partly Cloudy,140,2012-01-27 06:53:00
2:53 AM,68.0,66.0,93,29.98,9.0,SSE,6.9,-,N/A,,Clear,160,2012-01-27 07:53:00
3:35 AM,71.6,69.8,94,29.98,9.0,South,10.4,-,N/A,,Mostly Cloudy,170,2012-01-27 08:35:00
3:53 AM,72.0,69.1,91,29.97,9.0,South,9.2,-,N/A,,Overcast,170,2012-01-27 08:53:00
4:27 AM,71.6,69.8,94,29.99,8.0,South,8.1,-,N/A,,Overcast,170,2012-01-27 09:27:00
4:53 AM,72.0,69.1,91,29.99,8.0,SSE,8.1,-,N/A,,Overcast,160,2012-01-27 09:53:00
5:07 AM,71.6,69.8,94,30.00,8.0,South,8.1,-,N/A,,Overcast,170,2012-01-27 10:07:00
5:20 AM,71.6,69.8,94,30.00,8.0,SSE,8.1,-,N/A,,Overcast,160,2012-01-27 10:20:00
5:53 AM,73.0,70.0,90,30.01,8.0,South,5.8,-,N/A,,Mostly Cloudy,170,2012-01-27 10:53:00
6:53 AM,73.0,70.0,90,30.04,8.0,South,10.4,-,N/A,,Overcast,190,2012-01-27 11:53:00
7:03 AM,71.6,69.8,94,30.08,1.8,WSW,17.3,32.2,0.10,Rain,Light Rain,240,2012-01-27 12:03:00
7:08 AM,66.2,66.2,100,30.08,1.5,WSW,13.8,32.2,0.12,Rain,Rain,250,2012-01-27 12:08:00
7:13 AM,66.2,66.2,100,30.08,3.0,WSW,9.2,-,0.13,Rain,Light Rain,240,2012-01-27 12:13:00
7:53 AM,66.2,62.6,88,30.06,10.0,SW,5.8,-,N/A,,Overcast,220,2012-01-27 12:53:00
8:53 AM,68.0,63.7,86,30.04,9.0,SSE,5.8,-,N/A,,Mostly Cloudy,150,2012-01-27 13:53:00
9:53 AM,70.0,63.0,78,30.02,10.0,South,5.8,-,0.00,,Mostly Cloudy,180,2012-01-27 14:53:00
10:53 AM,73.4,68.0,83,30.02,10.0,South,3.5,-,N/A,,Partly Cloudy,180,2012-01-27 15:53:00
11:53 AM,75.0,64.9,71,30.04,10.0,SSW,10.4,-,N/A,,Mostly Cloudy,210,2012-01-27 16:53:00
12:53 PM,73.9,66.0,76,30.01,10.0,WNW,5.8,-,N/A,,Mostly Cloudy,290,2012-01-27 17:53:00
1:53 PM,73.0,66.0,79,30.00,10.0,WSW,6.9,-,N/A,,Mostly Cloudy,250,2012-01-27 18:53:00
2:53 PM,73.0,66.0,79,29.99,10.0,WSW,6.9,-,N/A,,Overcast,240,2012-01-27 19:53:00
3:01 PM,73.4,66.2,78,30.00,10.0,WSW,6.9,-,N/A,,Overcast,250,2012-01-27 20:01:00
3:51 PM,69.8,68.0,94,30.01,2.0,SW,6.9,-,0.02,Rain,Light Rain,230,2012-01-27 20:51:00
3:53 PM,70.0,68.0,93,30.01,2.5,WSW,5.8,-,0.02,Rain,Light Rain,240,2012-01-27 20:53:00
4:00 PM,69.8,68.0,94,30.00,7.0,WSW,3.5,-,0.00,Rain,Light Rain,240,2012-01-27 21:00:00
4:24 PM,71.6,-9999,N/A,30.01,10.0,West,5.8,-,0.00,,Overcast,260,2012-01-27 21:24:00
4:53 PM,71.1,65.1,81,30.01,10.0,West,4.6,-,0.00,,Mostly Cloudy,260,2012-01-27 21:53:00
5:53 PM,71.1,65.5,82,30.01,10.0,West,4.6,-,N/A,,Mostly Cloudy,270,2012-01-27 22:53:00
6:53 PM,69.8,66.2,88,30.03,10.0,Calm,Calm,-,N/A,,Scattered Clouds,0,2012-01-27 23:53:00
7:53 PM,68.0,66.0,93,30.05,10.0,Calm,Calm,-,N/A,,Clear,0,2012-01-28 00:53:00
8:53 PM,66.9,66.0,97,30.06,8.0,Calm,Calm,-,N/A,,Clear,0,2012-01-28 01:53:00
9:49 PM,66.2,66.2,100,30.07,2.5,Calm,Calm,-,N/A,,Clear,0,2012-01-28 02:49:00
9:53 PM,66.0,66.0,100,30.06,4.0,Calm,Calm,-,N/A,,Clear,0,2012-01-28 02:53:00
10:40 PM,66.2,64.4,94,30.07,1.5,Calm,Calm,-,N/A,,Partly Cloudy,0,2012-01-28 03:40:00
10:43 PM,64.4,64.4,100,30.07,0.8,Calm,Calm,-,N/A,,Mist,0,2012-01-28 03:43:00
10:51 PM,64.4,64.4,100,30.07,0.2,Calm,Calm,-,N/A,Fog,Fog,0,2012-01-28 03:51:00
10:53 PM,64.9,64.9,100,30.07,0.2,Calm,Calm,-,N/A,Fog,Fog,0,2012-01-28 03:53:00
11:08 PM,64.4,64.4,100,30.07,0.5,Calm,Calm,-,N/A,Fog,Fog,0,2012-01-28 04:08:00
11:32 PM,64.4,64.4,100,30.07,0.2,Calm,Calm,-,N/A,Fog,Fog,0,2012-01-28 04:32:00
11:53 PM,64.0,64.0,100,30.06,0.2,Calm,Calm,-,N/A,Fog,Fog,0,2012-01-28 04:53:00